Montauk, NY

12:38 AM EDT on September 29, 2016 (GMT -0400)
Montauk

Weather History for KMTP - September, 2013

Change the Weather History Date:

Wednesday, September 25, 2013

  Actual Average (KHTO) Record (KHTO)
Temperature  
Mean Temperature 59 °F -  
Max Temperature 69 °F 68 °F 86 °F (1930)
Min Temperature 50 °F 50 °F 35 °F (1963)
Degree Days  
Heating Degree Days 6    
Growing Degree Days 9 (Base 50)    
Moisture  
Dew Point 49 °F    
Average Humidity 66    
Maximum Humidity 83    
Minimum Humidity 43    
Precipitation  
Precipitation 0.00 in - - ()
Sea Level Pressure  
Sea Level Pressure 29.93 in    
Wind  
Wind Speed 4 mph (NW)    
Max Wind Speed 9 mph    
Max Gust Speed -    
Averages and records for this station are not official NWS values.
T = Trace of Precipitation, MM = Missing Value Source: NWS Daily Summary

Daily Weather History Graph

Daily Weather History Graph

Search for Another Location

Airport or City:

Trip Planner

Search our weather history database for the weather conditions in past years. The results will help you decide how hot, cold, wet, or windy it might be!

Date:

Astronomy

Sep. 25, 2013 Rise Set
Actual Time 6:38 AM EDT 6:39 PM EDT
Civil Twilight 6:10 AM EDT 7:06 PM EDT
Nautical Twilight 5:38 AM EDT 7:38 PM EDT
Astronomical Twilight 5:06 AM EDT 8:11 PM EDT
Moon 10:40 PM EDT (9/25) 12:44 PM EDT (9/25)
Length of Visible Light 12h 55m
Length of Day
12h 00m
Waning Gibbous, 64% of the Moon is Illuminated
Sep 25
Waning Gibbous
Sep 26
Last Quarter
Oct 4
New
Oct 11
First Quarter
Oct 18
Full

Hourly Weather History & Observations

Time (EDT) Temp. Dew Point Humidity Pressure Visibility Wind Dir Wind Speed Gust Speed Precip Events Conditions
12:54 AM 59.0 °F 48.0 °F 67% 29.94 in - NE 3.5 mph - N/A   Unknown
1:54 AM 57.0 °F 48.0 °F 72% 29.94 in - Calm Calm - N/A   Unknown
2:54 AM 50.0 °F 45.0 °F 83% 29.93 in - Calm Calm - N/A   Unknown
3:54 AM 57.9 °F 46.0 °F 65% 29.92 in - North 3.5 mph - N/A   Unknown
4:54 AM 57.0 °F 48.9 °F 74% 29.93 in - NW 3.5 mph - N/A   Unknown
5:54 AM 57.9 °F 48.0 °F 70% 29.92 in - WNW 4.6 mph - N/A   Unknown
6:54 AM 57.9 °F 48.0 °F 70% 29.93 in - WNW 6.9 mph - N/A   Unknown
7:54 AM 59.0 °F 48.9 °F 69% 29.94 in - NW 5.8 mph - N/A   Unknown
8:54 AM 61.0 °F 50.0 °F 67% 29.94 in - WNW 6.9 mph - N/A   Unknown
9:54 AM 62.1 °F 48.9 °F 62% 29.94 in - NW 9.2 mph - N/A   Unknown
10:54 AM 63.0 °F 48.0 °F 58% 29.94 in - NNW 8.1 mph - N/A   Unknown
11:54 AM 64.0 °F 48.0 °F 56% 29.94 in - West 5.8 mph - N/A   Unknown
12:54 PM 66.9 °F 48.9 °F 52% 29.93 in - NW 4.6 mph - N/A   Unknown
1:54 PM 66.9 °F 46.9 °F 49% 29.91 in - West 6.9 mph - N/A   Unknown
2:54 PM 68.0 °F 46.0 °F 45% 29.90 in - West 8.1 mph - N/A   Unknown
3:54 PM 68.0 °F 45.0 °F 43% 29.89 in - Variable 6.9 mph - N/A   Unknown
4:54 PM 68.0 °F 46.0 °F 45% 29.89 in - WSW 3.5 mph - N/A   Unknown
5:54 PM 64.9 °F 53.1 °F 65% 29.90 in - Calm Calm - N/A   Unknown
6:54 PM 61.0 °F 53.1 °F 75% 29.91 in - Calm Calm - N/A   Unknown
7:54 PM 60.1 °F 54.0 °F 80% 29.92 in - Calm Calm - N/A   Unknown
8:54 PM 57.9 °F 52.0 °F 81% 29.94 in - Calm Calm - N/A   Unknown
9:54 PM 61.0 °F 55.0 °F 81% 29.95 in - ESE 4.6 mph - N/A   Unknown
10:54 PM 61.0 °F 54.0 °F 78% 29.96 in - East 4.6 mph - N/A   Unknown
11:54 PM 61.0 °F 53.1 °F 75% 29.97 in - East 3.5 mph - N/A   Unknown